Tracking 29892 objects as of 21-Nov-2024
HD Live streaming from Space Station
objects crossing your sky now

COSMOS 1150

Track COSMOS 1150 now!
10-day predictions
COSMOS 1150 is classified as:


NORAD ID: 11667
Int'l Code: 1980-003A
Perigee: 969.1 km
Apogee: 1,018.5 km
Inclination: 83.0 °
Period: 104.8 minutes
Semi major axis: 7364 km
RCS: 2.2107 m2 (large)
Launch date: January 14, 1980
Source: Commonwealth of Independent States (former USSR) (CIS)
Launch site: PLESETSK MISSILE AND SPACE COMPLEX (PKMTR)
Your satellite tracking list
Your tracking list is empty




NASA's NSSDC Master Catalog

Two Line Element Set (TLE):
1 11667U 80003A   24325.56851021  .00000118  00000-0  10955-3 0  9999
2 11667  82.9564 241.8220 0033550  81.1024  43.3177 13.73611024243617
Source of the keplerian elements: AFSPC